Minot AFB, ND

8:54 PM CST on January 18, 2018 (GMT -0600)
Minot Air Force Base

Weather History for KMIB - November, 2011

Change the Weather History Date:

Friday, November 25, 2011

  Actual Average Record
Temperature  
Mean Temperature 31 °F -  
Max Temperature 33 °F 29 °F 48 °F (2016)
Min Temperature 29 °F 15 °F -14 °F (1996)
Degree Days  
Heating Degree Days 34    
Moisture  
Dew Point 31 °F    
Average Humidity 100    
Maximum Humidity 100    
Minimum Humidity 99    
Precipitation  
Precipitation 0.00 in - - ()
Sea Level Pressure  
Sea Level Pressure 29.78 in    
Wind  
Wind Speed 8 mph (East)    
Max Wind Speed 15 mph    
Max Gust Speed -    
Visibility 5 miles    
Events Fog    
Averages and records for this station are not official NWS values.
T = Trace of Precipitation, MM = Missing Value Source: NWS Daily Summary

Daily Weather History Graph

Daily Weather History Graph

Search for Another Location

Airport or City:

Trip Planner

Search our weather history database for the weather conditions in past years. The results will help you decide how hot, cold, wet, or windy it might be!

Date:

Astronomy

Nov. 25, 2011 Rise Set
Actual Time 8:07 AM CST 4:56 PM CST
Civil Twilight 7:32 AM CST 5:32 PM CST
Nautical Twilight 6:53 AM CST 6:10 PM CST
Astronomical Twilight 6:15 AM CST 6:48 PM CST
Moon 8:42 AM CST (11/25) 5:21 PM CST (11/25)
Length of Visible Light 9h 59m
Length of Day
8h 49m
New Moon, 0% of the Moon is Illuminated
Nov 25
New Moon
Dec 2
First Quarter
Dec 10
Full
Dec 17
Last Quarter
Dec 24
New

Hourly Weather History & Observations

Time (CST) Temp. Windchill Dew Point Humidity Pressure Visibility Wind Dir Wind Speed Gust Speed Precip Events Conditions
12:28 AM 32.0 °F 25.6 °F 32.0 °F 100% 29.77 in 10.0 mi North 6.9 mph - N/A   Overcast
12:44 AM 32.0 °F 24.8 °F 32.0 °F 100% 29.76 in 10.0 mi North 8.1 mph - N/A   Overcast
12:54 AM 32.0 °F 24.2 °F 32.0 °F 100% 29.75 in 9.0 mi North 9.2 mph - N/A   Overcast
12:55 AM 31.8 °F 23.9 °F 31.8 °F 100% 29.75 in 9.0 mi North 9.2 mph - N/A   Overcast
1:22 AM 32.0 °F 24.2 °F 32.0 °F 100% 29.75 in 9.0 mi North 9.2 mph - N/A   Overcast
1:33 AM 32.0 °F 23.6 °F 32.0 °F 100% 29.75 in 9.0 mi North 10.4 mph - N/A   Overcast
1:43 AM 32.0 °F 24.2 °F 32.0 °F 100% 29.75 in 8.0 mi North 9.2 mph - N/A   Overcast
1:55 AM 31.5 °F 23.5 °F 31.5 °F 100% 29.75 in 8.0 mi North 9.2 mph - N/A   Overcast
2:16 AM 30.2 °F 21.3 °F 30.2 °F 100% 29.75 in 8.0 mi NNE 10.4 mph - N/A   Overcast
2:43 AM 30.2 °F 22.6 °F 30.2 °F 100% 29.78 in 10.0 mi NNE 8.1 mph - N/A   Overcast
2:54 AM 30.2 °F 22.6 °F 30.2 °F 100% 29.78 in 10.0 mi NE 8.1 mph - N/A   Overcast
2:55 AM 30.4 °F 22.2 °F 30.4 °F 100% 29.78 in 10.0 mi NE 9.2 mph - N/A   Overcast
3:55 AM 30.0 °F 23.2 °F 30.0 °F 100% 29.76 in 10.0 mi NE 6.9 mph - N/A   Overcast
4:21 AM 30.2 °F 24.3 °F 30.2 °F 100% 29.75 in 10.0 mi East 5.8 mph - N/A   Overcast
4:55 AM 30.0 °F 24.1 °F 30.0 °F 100% 29.77 in 10.0 mi NE 5.8 mph - N/A   Overcast
5:49 AM 30.2 °F 25.4 °F 30.2 °F 100% 29.76 in 10.0 mi ESE 4.6 mph - N/A   Overcast
5:55 AM 29.7 °F - 29.7 °F 100% 29.76 in 10.0 mi Calm Calm - N/A   Overcast
6:19 AM 30.2 °F 26.7 °F 30.2 °F 100% 29.77 in 10.0 mi ESE 3.5 mph - N/A   Overcast
6:51 AM 30.2 °F 26.7 °F 30.2 °F 100% 29.78 in 7.0 mi East 3.5 mph - N/A   Overcast
6:55 AM 30.2 °F 25.4 °F 30.2 °F 100% 29.77 in 7.0 mi East 4.6 mph - N/A   Overcast
7:13 AM 30.2 °F - 30.2 °F 100% 29.78 in 3.0 mi Calm Calm - N/A   Overcast
7:17 AM 30.2 °F - 30.2 °F 100% 29.78 in 2.5 mi Calm Calm - N/A   Overcast
7:20 AM 30.2 °F 26.7 °F 30.2 °F 100% 29.78 in 1.8 mi East 3.5 mph - N/A   Overcast
7:21 AM 30.2 °F 25.4 °F 30.2 °F 100% 29.78 in 1.5 mi East 4.6 mph - N/A   Overcast
7:23 AM 30.2 °F 24.3 °F 30.2 °F 100% 29.77 in 1.2 mi East 5.8 mph - N/A   Overcast
7:24 AM 30.2 °F 24.3 °F 30.2 °F 100% 29.77 in 1.0 mi East 5.8 mph - N/A   Mist
7:26 AM 30.2 °F 23.4 °F 30.2 °F 100% 29.77 in 0.8 mi East 6.9 mph - N/A   Mist
7:28 AM 30.2 °F 23.4 °F 30.2 °F 100% 29.77 in 0.8 mi East 6.9 mph - N/A   Mist
7:29 AM 30.2 °F 23.4 °F 30.2 °F 100% 29.77 in 0.5 mi East 6.9 mph - N/A Fog Light Freezing Fog
7:33 AM 30.2 °F 22.6 °F 30.2 °F 100% 29.77 in 0.5 mi East 8.1 mph - N/A Fog Light Freezing Fog
7:37 AM 30.2 °F 23.4 °F 30.2 °F 100% 29.77 in 0.5 mi East 6.9 mph - N/A Fog Light Freezing Fog
7:41 AM 30.2 °F 23.4 °F 30.2 °F 100% 29.77 in 0.5 mi ESE 6.9 mph - N/A Fog Light Freezing Fog
7:47 AM 30.2 °F 22.6 °F 30.2 °F 100% 29.77 in 0.5 mi ESE 8.1 mph - N/A Fog Light Freezing Drizzle
7:49 AM 30.2 °F 23.4 °F 30.2 °F 100% 29.77 in 0.5 mi ESE 6.9 mph - N/A Fog Light Freezing Drizzle
7:52 AM 30.2 °F 22.6 °F 30.2 °F 100% 29.76 in 0.8 mi ESE 8.1 mph - N/A   Light Freezing Drizzle
7:55 AM 30.7 °F 23.3 °F 30.6 °F 99% 29.77 in 0.8 mi ESE 8.1 mph - 0.00 in   Light Freezing Drizzle
8:03 AM 30.2 °F 21.9 °F 30.2 °F 100% 29.76 in 1.0 mi ESE 9.2 mph - N/A   Light Freezing Drizzle
8:04 AM 30.2 °F 21.9 °F 30.2 °F 100% 29.76 in 1.0 mi ESE 9.2 mph - N/A   Light Freezing Drizzle
8:05 AM 30.2 °F 21.3 °F 30.2 °F 100% 29.77 in 1.0 mi ESE 10.4 mph - N/A   Light Freezing Drizzle
8:07 AM 30.2 °F 21.9 °F 30.2 °F 100% 29.77 in 1.2 mi ESE 9.2 mph - N/A   Light Freezing Drizzle
8:09 AM 30.2 °F 21.3 °F 30.2 °F 100% 29.77 in 1.5 mi ESE 10.4 mph - N/A   Light Freezing Drizzle
8:10 AM 30.2 °F 21.9 °F 30.2 °F 100% 29.77 in 1.8 mi ESE 9.2 mph - N/A   Overcast
8:11 AM 30.2 °F 22.6 °F 30.2 °F 100% 29.77 in 2.0 mi ESE 8.1 mph - N/A   Overcast
8:14 AM 30.2 °F 21.9 °F 30.2 °F 100% 29.77 in 3.0 mi ESE 9.2 mph - N/A   Overcast
8:17 AM 30.2 °F 20.8 °F 30.2 °F 100% 29.76 in 2.5 mi ESE 11.5 mph - N/A   Overcast
8:20 AM 30.2 °F 20.2 °F 30.2 °F 100% 29.76 in 1.8 mi ESE 12.7 mph - N/A   Overcast
8:22 AM 30.2 °F 19.8 °F 30.2 °F 100% 29.76 in 1.2 mi ESE 13.8 mph - N/A   Overcast
8:24 AM 30.2 °F 19.8 °F 30.2 °F 100% 29.75 in 1.0 mi ESE 13.8 mph - N/A   Mist
8:27 AM 30.2 °F 19.8 °F 30.2 °F 100% 29.76 in 0.8 mi ESE 13.8 mph - N/A   Mist
8:29 AM 30.2 °F 20.8 °F 30.2 °F 100% 29.76 in 0.8 mi ESE 11.5 mph - N/A   Mist
8:31 AM 30.2 °F 20.2 °F 30.2 °F 100% 29.76 in 0.8 mi ESE 12.7 mph - N/A   Mist
8:33 AM 30.2 °F 21.3 °F 30.2 °F 100% 29.76 in 0.8 mi ESE 10.4 mph - N/A   Mist
8:35 AM 30.2 °F 21.3 °F 30.2 °F 100% 29.76 in 0.5 mi ESE 10.4 mph - N/A Fog Light Freezing Fog
8:51 AM 32.0 °F 22.1 °F 32.0 °F 100% 29.76 in 0.8 mi ESE 13.8 mph - N/A   Mist
8:55 AM 31.1 °F 20.9 °F 31.1 °F 100% 29.76 in 0.8 mi ESE 13.8 mph - 0.00 in   Mist
9:03 AM 32.0 °F 23.0 °F 32.0 °F 100% 29.77 in 0.8 mi ESE 11.5 mph - N/A   Mist
9:04 AM 32.0 °F 22.5 °F 32.0 °F 100% 29.77 in 1.0 mi ESE 12.7 mph - N/A   Mist
9:09 AM 32.0 °F 23.0 °F 32.0 °F 100% 29.77 in 1.0 mi ESE 11.5 mph - N/A   Mist
9:18 AM 32.0 °F 24.2 °F 32.0 °F 100% 29.78 in 1.2 mi ESE 9.2 mph - N/A   Overcast
9:22 AM 32.0 °F 22.1 °F 32.0 °F 100% 29.78 in 1.5 mi East 13.8 mph - N/A   Overcast
9:26 AM 32.0 °F 23.6 °F 32.0 °F 100% 29.78 in 2.0 mi ESE 10.4 mph - N/A   Overcast
9:32 AM 32.0 °F 23.0 °F 32.0 °F 100% 29.78 in 3.0 mi ESE 11.5 mph - N/A   Overcast
9:55 AM 31.5 °F 24.2 °F 31.5 °F 100% 29.78 in 4.0 mi ESE 8.1 mph - N/A   Overcast
10:09 AM 32.0 °F 24.2 °F 32.0 °F 100% 29.78 in 2.5 mi ESE 9.2 mph - N/A   Overcast
10:13 AM 32.0 °F 24.8 °F 32.0 °F 100% 29.78 in 1.8 mi ESE 8.1 mph - N/A   Overcast
10:16 AM 32.0 °F 25.6 °F 32.0 °F 100% 29.78 in 1.2 mi ESE 6.9 mph - N/A   Overcast
10:19 AM 32.0 °F 24.2 °F 32.0 °F 100% 29.78 in 1.0 mi ESE 9.2 mph - N/A   Mist
10:22 AM 32.0 °F 23.6 °F 32.0 °F 100% 29.77 in 1.0 mi ESE 10.4 mph - N/A   Mist
10:28 AM 32.0 °F 24.8 °F 32.0 °F 100% 29.78 in 0.8 mi ESE 8.1 mph - N/A   Mist
10:32 AM 32.0 °F 23.6 °F 32.0 °F 100% 29.77 in 0.8 mi ESE 10.4 mph - N/A   Mist
10:35 AM 32.0 °F 24.2 °F 32.0 °F 100% 29.77 in 0.8 mi ESE 9.2 mph - N/A   Mist
10:38 AM 32.0 °F 23.0 °F 32.0 °F 100% 29.77 in 0.8 mi ESE 11.5 mph - N/A   Mist
10:43 AM 32.0 °F 23.6 °F 32.0 °F 100% 29.76 in 0.8 mi ESE 10.4 mph - N/A   Mist
10:44 AM 32.0 °F 23.0 °F 32.0 °F 100% 29.76 in 0.8 mi ESE 11.5 mph - N/A   Mist
10:45 AM 32.0 °F 23.0 °F 32.0 °F 100% 29.76 in 1.0 mi ESE 11.5 mph - N/A   Mist
10:49 AM 32.0 °F 23.0 °F 32.0 °F 100% 29.76 in 1.2 mi ESE 11.5 mph - N/A   Overcast
10:51 AM 32.0 °F 24.8 °F 32.0 °F 100% 29.77 in 1.5 mi ESE 8.1 mph - N/A   Overcast
10:53 AM 32.0 °F 24.2 °F 32.0 °F 100% 29.77 in 2.0 mi ESE 9.2 mph - N/A   Overcast
10:55 AM 32.2 °F 23.2 °F 32.2 °F 100% 29.76 in 2.0 mi ESE 11.5 mph - N/A   Overcast
10:59 AM 32.0 °F 23.0 °F 32.0 °F 100% 29.76 in 3.0 mi ESE 11.5 mph - N/A   Overcast
11:11 AM 32.0 °F 21.6 °F 32.0 °F 100% 29.75 in 2.5 mi ESE 15.0 mph - N/A   Overcast
11:18 AM 32.0 °F 22.1 °F 32.0 °F 100% 29.75 in 3.0 mi ESE 13.8 mph - N/A   Overcast
11:55 AM 32.0 °F 24.8 °F 32.0 °F 100% 29.75 in 4.0 mi ESE 8.1 mph - N/A   Overcast
12:27 PM 33.8 °F 25.8 °F 33.8 °F 100% 29.76 in 10.0 mi SSE 10.4 mph - N/A   Overcast
12:37 PM 33.8 °F 27.7 °F 33.8 °F 100% 29.76 in 10.0 mi SE 6.9 mph - N/A   Overcast
12:55 PM 32.4 °F 26.9 °F 32.4 °F 100% 29.76 in 10.0 mi SE 5.8 mph - N/A   Overcast
1:06 PM 32.0 °F 27.5 °F 32.0 °F 100% 29.75 in 10.0 mi SE 4.6 mph - N/A   Overcast
1:10 PM 32.0 °F 28.7 °F 32.0 °F 100% 29.75 in 10.0 mi ESE 3.5 mph - N/A   Overcast
1:42 PM 32.0 °F - 32.0 °F 100% 29.74 in 10.0 mi Calm Calm - N/A   Overcast
1:55 PM 32.5 °F 29.3 °F 32.5 °F 100% 29.74 in 10.0 mi North 3.5 mph - N/A   Overcast
2:30 PM 32.0 °F 26.4 °F 32.0 °F 100% 29.74 in 10.0 mi NE 5.8 mph - N/A   Overcast
2:42 PM 32.0 °F 25.6 °F 32.0 °F 100% 29.73 in 10.0 mi East 6.9 mph - N/A   Overcast
2:48 PM 32.0 °F 25.6 °F 32.0 °F 100% 29.73 in 10.0 mi East 6.9 mph - N/A   Overcast
2:50 PM 32.0 °F 23.6 °F 32.0 °F 100% 29.72 in 10.0 mi ESE 10.4 mph - N/A   Overcast
2:55 PM 32.9 °F 24.7 °F 32.9 °F 100% 29.72 in 10.0 mi ESE 10.4 mph - N/A   Overcast
3:01 PM 32.0 °F 23.6 °F 32.0 °F 100% 29.72 in 10.0 mi East 10.4 mph - N/A   Overcast
3:29 PM 33.8 °F 27.0 °F 33.8 °F 100% 29.74 in 10.0 mi East 8.1 mph - N/A   Overcast
3:55 PM 32.9 °F - 32.9 °F 100% 29.78 in 10.0 mi Calm Calm - N/A   Overcast
4:55 PM 32.5 °F - 32.5 °F 100% 29.80 in 10.0 mi Calm Calm - N/A   Overcast
5:55 PM 31.6 °F 28.3 °F 31.6 °F 100% 29.81 in 10.0 mi ENE 3.5 mph - N/A   Overcast
6:55 PM 31.8 °F 27.3 °F 31.8 °F 100% 29.83 in 10.0 mi East 4.6 mph - N/A   Overcast
7:55 PM 32.0 °F - 32.0 °F 100% 29.86 in 10.0 mi Calm Calm - N/A   Overcast
8:43 PM 32.0 °F - 32.0 °F 100% 29.88 in 10.0 mi Calm Calm - N/A   Overcast
8:55 PM 32.0 °F - 32.0 °F 100% 29.88 in 10.0 mi Calm Calm - N/A   Overcast
9:27 PM 32.0 °F - 32.0 °F 100% 29.89 in 10.0 mi Calm Calm - N/A   Overcast
9:55 PM 31.6 °F - 31.6 °F 100% 29.90 in 10.0 mi Calm Calm - 0.00 in   Light Freezing Rain
10:04 PM 32.0 °F - 32.0 °F 100% 29.90 in 10.0 mi Calm Calm - N/A   Overcast
10:16 PM 32.0 °F - 32.0 °F 100% 29.91 in 10.0 mi Calm Calm - N/A   Overcast
10:33 PM 32.0 °F - 32.0 °F 100% 29.91 in 10.0 mi Calm Calm - N/A   Mostly Cloudy
10:40 PM 32.0 °F - 32.0 °F 100% 29.90 in 10.0 mi Calm Calm - N/A   Overcast
10:47 PM 32.0 °F - 32.0 °F 100% 29.90 in 10.0 mi Calm Calm - N/A   Mostly Cloudy
10:55 PM 31.8 °F - 31.8 °F 100% 29.91 in 10.0 mi Calm Calm - 0.00 in   Mostly Cloudy
11:55 PM 31.3 °F 25.6 °F 31.3 °F 100% 29.94 in 10.0 mi West 5.8 mph - N/A   Overcast